Year,Month,Day,Hour,Minute,Value (Times are PST for temperature in C)
2014,05,24,00,00,12.70
2014,05,24,00,01,12.70
2014,05,24,00,02,12.70
2014,05,24,00,03,12.70
2014,05,24,00,04,12.70
2014,05,24,00,05,12.70
2014,05,24,00,06,12.70
2014,05,24,00,07,12.70
2014,05,24,00,08,12.70
2014,05,24,00,09,12.70
2014,05,24,00,10,12.70
2014,05,24,00,11,12.70
2014,05,24,00,12,12.70
2014,05,24,00,13,12.70
2014,05,24,00,14,12.70
2014,05,24,00,15,12.60
2014,05,24,00,16,12.60
2014,05,24,00,17,12.60
2014,05,24,00,18,12.60
2014,05,24,00,19,12.60
2014,05,24,00,20,12.60
2014,05,24,00,21,12.60
2014,05,24,00,22,12.50
2014,05,24,00,23,12.50
2014,05,24,00,24,12.50
2014,05,24,00,25,12.50
2014,05,24,00,26,12.40
2014,05,24,00,27,12.40
2014,05,24,00,28,12.40
2014,05,24,00,29,12.40
2014,05,24,00,30,12.40
2014,05,24,00,31,12.40
2014,05,24,00,32,12.40
2014,05,24,00,33,12.30
2014,05,24,00,34,12.30
2014,05,24,00,35,12.30
2014,05,24,00,36,12.30
2014,05,24,00,37,12.30
2014,05,24,00,38,12.30
2014,05,24,00,39,12.30
2014,05,24,00,40,12.30
2014,05,24,00,41,12.30
2014,05,24,00,42,12.30
2014,05,24,00,43,12.30
2014,05,24,00,44,12.30
2014,05,24,00,45,12.30
2014,05,24,00,46,12.30
2014,05,24,00,47,12.30
2014,05,24,00,48,12.30
2014,05,24,00,49,12.30
2014,05,24,00,50,12.30
2014,05,24,00,51,12.30
2014,05,24,00,52,12.30
2014,05,24,00,53,12.30
2014,05,24,00,54,12.30
2014,05,24,00,55,12.40
2014,05,24,00,56,12.40
2014,05,24,00,57,12.40
2014,05,24,00,58,12.40
2014,05,24,00,59,12.40
2014,05,24,01,00,12.40
2014,05,24,01,01,12.40
2014,05,24,01,02,12.50
2014,05,24,01,03,12.50
2014,05,24,01,04,12.50
2014,05,24,01,05,12.50
2014,05,24,01,06,12.60
2014,05,24,01,07,12.60
2014,05,24,01,08,12.60
2014,05,24,01,09,12.60
2014,05,24,01,10,12.60
2014,05,24,01,11,12.60
2014,05,24,01,12,12.60
2014,05,24,01,13,12.60
2014,05,24,01,14,12.60
2014,05,24,01,15,12.60
2014,05,24,01,16,12.60
2014,05,24,01,17,12.60
2014,05,24,01,18,12.60
2014,05,24,01,19,12.60
2014,05,24,01,20,12.60
2014,05,24,01,21,12.60
2014,05,24,01,22,12.60
2014,05,24,01,23,12.60
2014,05,24,01,24,12.50
2014,05,24,01,25,12.50
2014,05,24,01,26,12.50
2014,05,24,01,27,12.50
2014,05,24,01,28,12.50
2014,05,24,01,29,12.50
2014,05,24,01,30,12.50
2014,05,24,01,31,12.50
2014,05,24,01,32,12.50
2014,05,24,01,33,12.50
2014,05,24,01,34,12.50
2014,05,24,01,35,12.50
2014,05,24,01,36,12.50
2014,05,24,01,37,12.50
2014,05,24,01,38,12.50
2014,05,24,01,39,12.50
2014,05,24,01,40,12.50
2014,05,24,01,41,12.50
2014,05,24,01,42,12.50
2014,05,24,01,43,12.50
2014,05,24,01,44,12.60
2014,05,24,01,45,12.50
2014,05,24,01,46,12.50
2014,05,24,01,47,12.50
2014,05,24,01,48,12.50
2014,05,24,01,49,12.50
2014,05,24,01,50,12.40
2014,05,24,01,51,12.40
2014,05,24,01,52,12.40
2014,05,24,01,53,12.40
2014,05,24,01,54,12.30
2014,05,24,01,55,12.30
2014,05,24,01,56,12.30
2014,05,24,01,57,12.20
2014,05,24,01,58,12.20
2014,05,24,01,59,12.20
2014,05,24,02,00,12.10
2014,05,24,02,01,12.10
2014,05,24,02,02,12.10
2014,05,24,02,03,12.10
2014,05,24,02,04,12.00
2014,05,24,02,05,12.00
2014,05,24,02,06,12.00
2014,05,24,02,07,12.00
2014,05,24,02,08,12.00
2014,05,24,02,09,11.90
2014,05,24,02,10,11.90
2014,05,24,02,11,11.90
2014,05,24,02,12,11.90
2014,05,24,02,13,11.90
2014,05,24,02,14,11.90
2014,05,24,02,15,11.90
2014,05,24,02,16,11.90
2014,05,24,02,17,11.90
2014,05,24,02,18,11.90
2014,05,24,02,19,11.90
2014,05,24,02,20,11.90
2014,05,24,02,21,11.80
2014,05,24,02,22,11.80
2014,05,24,02,23,11.90
2014,05,24,02,24,11.90
2014,05,24,02,25,11.90
2014,05,24,02,26,11.90
2014,05,24,02,27,12.00
2014,05,24,02,28,12.00
2014,05,24,02,29,12.10
2014,05,24,02,30,12.10
2014,05,24,02,31,12.10
2014,05,24,02,32,12.20
2014,05,24,02,33,12.20
2014,05,24,02,34,12.20
2014,05,24,02,35,12.20
2014,05,24,02,36,12.20
2014,05,24,02,37,12.30
2014,05,24,02,38,12.30
2014,05,24,02,39,12.30
2014,05,24,02,40,12.30
2014,05,24,02,41,12.30
2014,05,24,02,42,12.30
2014,05,24,02,43,12.30
2014,05,24,02,44,12.30
2014,05,24,02,45,12.30
2014,05,24,02,46,12.30
2014,05,24,02,47,12.30
2014,05,24,02,48,12.30
2014,05,24,02,49,12.30
2014,05,24,02,50,12.30
2014,05,24,02,51,12.30
2014,05,24,02,52,12.20
2014,05,24,02,53,12.20
2014,05,24,02,54,12.20
2014,05,24,02,55,12.20
2014,05,24,02,56,12.20
2014,05,24,02,57,12.20
2014,05,24,02,58,12.20
2014,05,24,02,59,12.20
2014,05,24,03,00,12.20
2014,05,24,03,01,12.20
2014,05,24,03,02,12.20
2014,05,24,03,03,12.20
2014,05,24,03,04,12.20
2014,05,24,03,05,12.20
2014,05,24,03,06,12.20
2014,05,24,03,07,12.20
2014,05,24,03,08,12.20
2014,05,24,03,09,12.20
2014,05,24,03,10,12.20
2014,05,24,03,11,12.20
2014,05,24,03,12,12.20
2014,05,24,03,13,12.20
2014,05,24,03,14,12.20
2014,05,24,03,15,12.20
2014,05,24,03,16,12.20
2014,05,24,03,17,12.20
2014,05,24,03,18,12.20
2014,05,24,03,19,12.20
2014,05,24,03,20,12.20
2014,05,24,03,21,12.20
2014,05,24,03,22,12.20
2014,05,24,03,23,12.20
2014,05,24,03,24,12.20
2014,05,24,03,25,12.20
2014,05,24,03,26,12.20
2014,05,24,03,27,12.20
2014,05,24,03,28,12.20
2014,05,24,03,29,12.20
2014,05,24,03,30,12.20
2014,05,24,03,31,12.10
2014,05,24,03,32,12.10
2014,05,24,03,33,12.10
2014,05,24,03,34,12.00
2014,05,24,03,35,12.00
2014,05,24,03,36,11.90
2014,05,24,03,37,11.90
2014,05,24,03,38,11.80
2014,05,24,03,39,11.80
2014,05,24,03,40,11.80
2014,05,24,03,41,11.80
2014,05,24,03,42,11.70
2014,05,24,03,43,11.70
2014,05,24,03,44,11.70
2014,05,24,03,45,11.70
2014,05,24,03,46,11.60
2014,05,24,03,47,11.60
2014,05,24,03,48,11.50
2014,05,24,03,49,11.50
2014,05,24,03,50,11.40
2014,05,24,03,51,11.40
2014,05,24,03,52,11.40
2014,05,24,03,53,11.30
2014,05,24,03,54,11.30
2014,05,24,03,55,11.30
2014,05,24,03,56,11.20
2014,05,24,03,57,11.20
2014,05,24,03,58,11.20
2014,05,24,03,59,11.10
2014,05,24,04,00,11.10
2014,05,24,04,01,11.10
2014,05,24,04,02,11.10
2014,05,24,04,03,11.00
2014,05,24,04,04,11.00
2014,05,24,04,05,11.00
2014,05,24,04,06,10.90
2014,05,24,04,07,10.90
2014,05,24,04,08,10.90
2014,05,24,04,09,10.90
2014,05,24,04,10,10.80
2014,05,24,04,11,10.80
2014,05,24,04,12,10.80
2014,05,24,04,13,10.80
2014,05,24,04,14,10.80
2014,05,24,04,15,10.70
2014,05,24,04,16,10.70
2014,05,24,04,17,10.70
2014,05,24,04,18,10.70
2014,05,24,04,19,10.60
2014,05,24,04,20,10.60
2014,05,24,04,21,10.60
2014,05,24,04,22,10.60
2014,05,24,04,23,10.60
2014,05,24,04,24,10.50
2014,05,24,04,25,10.50
2014,05,24,04,26,10.50
2014,05,24,04,27,10.40
2014,05,24,04,28,10.40
2014,05,24,04,29,10.40
2014,05,24,04,30,10.40
2014,05,24,04,31,10.40
2014,05,24,04,32,10.30
2014,05,24,04,33,10.30
2014,05,24,04,34,10.30
2014,05,24,04,35,10.30
2014,05,24,04,36,10.30
2014,05,24,04,37,10.30
2014,05,24,04,38,10.30
2014,05,24,04,39,10.30
2014,05,24,04,40,10.30
2014,05,24,04,41,10.20
2014,05,24,04,42,10.20
2014,05,24,04,43,10.20
2014,05,24,04,44,10.30
2014,05,24,04,45,10.30
2014,05,24,04,46,10.30
2014,05,24,04,47,10.30
2014,05,24,04,48,10.30
2014,05,24,04,49,10.30
2014,05,24,04,50,10.40
2014,05,24,04,51,10.40
2014,05,24,04,52,10.40
2014,05,24,04,53,10.50
2014,05,24,04,54,10.50
2014,05,24,04,55,10.60
2014,05,24,04,56,10.60
2014,05,24,04,57,10.60
2014,05,24,04,58,10.60
2014,05,24,04,59,10.60
2014,05,24,05,00,10.60
2014,05,24,05,01,10.60
2014,05,24,05,02,10.70
2014,05,24,05,03,10.70
2014,05,24,05,04,10.70
2014,05,24,05,05,10.70
2014,05,24,05,06,10.70
2014,05,24,05,07,10.70
2014,05,24,05,08,10.60
2014,05,24,05,09,10.60
2014,05,24,05,10,10.60
2014,05,24,05,11,10.60
2014,05,24,05,12,10.60
2014,05,24,05,13,10.60
2014,05,24,05,14,10.60
2014,05,24,05,15,10.50
2014,05,24,05,16,10.50
2014,05,24,05,17,10.50
2014,05,24,05,18,10.40
2014,05,24,05,19,10.40
2014,05,24,05,20,10.40
2014,05,24,05,21,10.40
2014,05,24,05,22,10.40
2014,05,24,05,23,10.40
2014,05,24,05,24,10.40
2014,05,24,05,25,10.30
2014,05,24,05,26,10.30
2014,05,24,05,27,10.30
2014,05,24,05,28,10.30
2014,05,24,05,29,10.30
2014,05,24,05,30,10.30
2014,05,24,05,31,10.30
2014,05,24,05,32,10.30
2014,05,24,05,33,10.30
2014,05,24,05,34,10.30
2014,05,24,05,35,10.30
2014,05,24,05,36,10.30
2014,05,24,05,37,10.30
2014,05,24,05,38,10.30
2014,05,24,05,39,10.20
2014,05,24,05,40,10.20
2014,05,24,05,41,10.20
2014,05,24,05,42,10.20
2014,05,24,05,43,10.20
2014,05,24,05,44,10.20
2014,05,24,05,45,10.20
2014,05,24,05,46,10.20
2014,05,24,05,47,10.20
2014,05,24,05,48,10.20
2014,05,24,05,49,10.20
2014,05,24,05,50,10.20
2014,05,24,05,51,10.20
2014,05,24,05,52,10.20
2014,05,24,05,53,10.20
2014,05,24,05,54,10.20
2014,05,24,05,55,10.20
2014,05,24,05,56,10.20
2014,05,24,05,57,10.20
2014,05,24,05,58,10.20
2014,05,24,05,59,10.20
2014,05,24,06,00,10.20
2014,05,24,06,01,10.30
2014,05,24,06,02,10.30
2014,05,24,06,03,10.30
2014,05,24,06,04,10.30
2014,05,24,06,05,10.30
2014,05,24,06,06,10.30
2014,05,24,06,07,10.30
2014,05,24,06,08,10.30
2014,05,24,06,09,10.30
2014,05,24,06,10,10.30
2014,05,24,06,11,10.30
2014,05,24,06,12,10.30
2014,05,24,06,13,10.30
2014,05,24,06,14,10.30
2014,05,24,06,15,10.30
2014,05,24,06,16,10.40
2014,05,24,06,17,10.40
2014,05,24,06,18,10.40
2014,05,24,06,19,10.50
2014,05,24,06,20,10.60
2014,05,24,06,21,10.60
2014,05,24,06,22,10.70
2014,05,24,06,23,10.70
2014,05,24,06,24,10.80
2014,05,24,06,25,10.80
2014,05,24,06,26,10.80
2014,05,24,06,27,10.90
2014,05,24,06,28,10.90
2014,05,24,06,29,11.00
2014,05,24,06,30,11.00
2014,05,24,06,31,11.10
2014,05,24,06,32,11.10
2014,05,24,06,33,11.10
2014,05,24,06,34,11.20
2014,05,24,06,35,11.20
2014,05,24,06,36,11.20
2014,05,24,06,37,11.30
2014,05,24,06,38,11.30
2014,05,24,06,39,11.30
2014,05,24,06,40,11.40
2014,05,24,06,41,11.40
2014,05,24,06,42,11.50
2014,05,24,06,43,11.50
2014,05,24,06,44,11.60
2014,05,24,06,45,11.60
2014,05,24,06,46,11.60
2014,05,24,06,47,11.70
2014,05,24,06,48,11.70
2014,05,24,06,49,11.70
2014,05,24,06,50,11.80
2014,05,24,06,51,11.80
2014,05,24,06,52,11.80
2014,05,24,06,53,11.80
2014,05,24,06,54,11.90
2014,05,24,06,55,11.90
2014,05,24,06,56,11.90
2014,05,24,06,57,12.00
2014,05,24,06,58,12.00
2014,05,24,06,59,12.10
2014,05,24,07,00,12.10
2014,05,24,07,01,12.10
2014,05,24,07,02,12.10
2014,05,24,07,03,12.20
2014,05,24,07,04,12.20
2014,05,24,07,05,12.20
2014,05,24,07,06,12.30
2014,05,24,07,07,12.30
2014,05,24,07,08,12.30
2014,05,24,07,09,12.30
2014,05,24,07,10,12.40
2014,05,24,07,11,12.40
2014,05,24,07,12,12.40
2014,05,24,07,13,12.40
2014,05,24,07,14,12.50
2014,05,24,07,15,12.50
2014,05,24,07,16,12.60
2014,05,24,07,17,12.60
2014,05,24,07,18,12.60
2014,05,24,07,19,12.60
2014,05,24,07,20,12.70
2014,05,24,07,21,12.70
2014,05,24,07,22,12.70
2014,05,24,07,23,12.80
2014,05,24,07,24,12.80
2014,05,24,07,25,12.80
2014,05,24,07,26,12.80
2014,05,24,07,27,12.90
2014,05,24,07,28,12.90
2014,05,24,07,29,12.90
2014,05,24,07,30,12.90
2014,05,24,07,31,13.00
2014,05,24,07,32,13.00
2014,05,24,07,33,13.10
2014,05,24,07,34,13.10
2014,05,24,07,35,13.10
2014,05,24,07,36,13.10
2014,05,24,07,37,13.20
2014,05,24,07,38,13.20
2014,05,24,07,39,13.20
2014,05,24,07,40,13.20
2014,05,24,07,41,13.20
2014,05,24,07,42,13.30
2014,05,24,07,43,13.30
2014,05,24,07,44,13.40
2014,05,24,07,45,13.40
2014,05,24,07,46,13.40
2014,05,24,07,47,13.50
2014,05,24,07,48,13.50
2014,05,24,07,49,13.60
2014,05,24,07,50,13.60
2014,05,24,07,51,13.70
2014,05,24,07,52,13.70
2014,05,24,07,53,13.70
2014,05,24,07,54,13.80
2014,05,24,07,55,13.80
2014,05,24,07,56,13.80
2014,05,24,07,57,13.90
2014,05,24,07,58,13.90
2014,05,24,07,59,14.00
2014,05,24,08,00,14.00
2014,05,24,08,01,14.00
2014,05,24,08,02,14.10
2014,05,24,08,03,14.10
2014,05,24,08,04,14.10
2014,05,24,08,05,14.20
2014,05,24,08,06,14.20
2014,05,24,08,07,14.20
2014,05,24,08,08,14.30
2014,05,24,08,09,14.30
2014,05,24,08,10,14.30
2014,05,24,08,11,14.30
2014,05,24,08,12,14.30
2014,05,24,08,13,14.40
2014,05,24,08,14,14.40
2014,05,24,08,15,14.40
2014,05,24,08,16,14.40
2014,05,24,08,17,14.40
2014,05,24,08,18,14.50
2014,05,24,08,19,14.50
2014,05,24,08,20,14.50
2014,05,24,08,21,14.60
2014,05,24,08,22,14.60
2014,05,24,08,23,14.70
2014,05,24,08,24,14.70
2014,05,24,08,25,14.70
2014,05,24,08,26,14.80
2014,05,24,08,27,14.80
2014,05,24,08,28,14.90
2014,05,24,08,29,14.90
2014,05,24,08,30,14.90
2014,05,24,08,31,14.90
2014,05,24,08,32,14.90
2014,05,24,08,33,14.90
2014,05,24,08,34,14.90
2014,05,24,08,35,14.90
2014,05,24,08,36,14.90
2014,05,24,08,37,14.90
2014,05,24,08,38,15.00
2014,05,24,08,39,15.00
2014,05,24,08,40,15.10
2014,05,24,08,41,15.10
2014,05,24,08,42,15.10
2014,05,24,08,43,15.10
2014,05,24,08,44,15.20
2014,05,24,08,45,15.20
2014,05,24,08,46,15.20
2014,05,24,08,47,15.30
2014,05,24,08,48,15.30
2014,05,24,08,49,15.40
2014,05,24,08,50,15.50
2014,05,24,08,51,15.50
2014,05,24,08,52,15.60
2014,05,24,08,53,15.60
2014,05,24,08,54,15.70
2014,05,24,08,55,15.70
2014,05,24,08,56,15.80
2014,05,24,08,57,15.90
2014,05,24,08,58,15.90
2014,05,24,08,59,16.00
2014,05,24,09,00,16.10
2014,05,24,09,01,16.20
2014,05,24,09,02,16.20
2014,05,24,09,03,16.30
2014,05,24,09,04,16.30
2014,05,24,09,05,16.40
2014,05,24,09,06,16.40
2014,05,24,09,07,16.40
2014,05,24,09,08,16.40
2014,05,24,09,09,16.40
2014,05,24,09,10,16.40
2014,05,24,09,11,16.40
2014,05,24,09,12,16.30
2014,05,24,09,13,16.30
2014,05,24,09,14,16.30
2014,05,24,09,15,16.30
2014,05,24,09,16,16.30
2014,05,24,09,17,16.30
2014,05,24,09,18,16.30
2014,05,24,09,19,16.30
2014,05,24,09,20,16.30
2014,05,24,09,21,16.30
2014,05,24,09,22,16.40
2014,05,24,09,23,16.40
2014,05,24,09,24,16.50
2014,05,24,09,25,16.60
2014,05,24,09,26,16.60
2014,05,24,09,27,16.60
2014,05,24,09,28,16.70
2014,05,24,09,29,16.70
2014,05,24,09,30,16.70
2014,05,24,09,31,16.80
2014,05,24,09,32,16.70
2014,05,24,09,33,16.80
2014,05,24,09,34,16.80
2014,05,24,09,35,16.80
2014,05,24,09,36,16.80
2014,05,24,09,37,16.80
2014,05,24,09,38,16.80
2014,05,24,09,39,16.90
2014,05,24,09,40,16.90
2014,05,24,09,41,17.00
2014,05,24,09,42,17.00
2014,05,24,09,43,17.10
2014,05,24,09,44,17.10
2014,05,24,09,45,17.20
2014,05,24,09,46,17.20
2014,05,24,09,47,17.20
2014,05,24,09,48,17.20
2014,05,24,09,49,17.20
2014,05,24,09,50,17.20
2014,05,24,09,51,17.20
2014,05,24,09,52,17.20
2014,05,24,09,53,17.30
2014,05,24,09,54,17.30
2014,05,24,09,55,17.40
2014,05,24,09,56,17.50
2014,05,24,09,57,17.60
2014,05,24,09,58,17.60
2014,05,24,09,59,17.70
2014,05,24,10,00,17.70
2014,05,24,10,01,17.80
2014,05,24,10,02,17.80
2014,05,24,10,03,17.80
2014,05,24,10,04,17.90
2014,05,24,10,05,17.90
2014,05,24,10,06,18.00
2014,05,24,10,07,18.00
2014,05,24,10,08,18.10
2014,05,24,10,09,18.10
2014,05,24,10,10,18.10
2014,05,24,10,11,18.20
2014,05,24,10,12,18.20
2014,05,24,10,13,18.30
2014,05,24,10,14,18.30
2014,05,24,10,15,18.40
2014,05,24,10,16,18.40
2014,05,24,10,17,18.50
2014,05,24,10,18,18.60
2014,05,24,10,19,18.70
2014,05,24,10,20,18.70
2014,05,24,10,21,18.80
2014,05,24,10,22,18.80
2014,05,24,10,23,18.80
2014,05,24,10,24,18.80
2014,05,24,10,25,18.80
2014,05,24,10,26,18.80
2014,05,24,10,27,18.90
2014,05,24,10,28,18.90
2014,05,24,10,29,19.00
2014,05,24,10,30,19.00
2014,05,24,10,31,19.00
2014,05,24,10,32,19.00
2014,05,24,10,33,18.90
2014,05,24,10,34,18.90
2014,05,24,10,35,18.80
2014,05,24,10,36,18.80
2014,05,24,10,37,18.70
2014,05,24,10,38,18.60
2014,05,24,10,39,18.50
2014,05,24,10,40,18.40
2014,05,24,10,41,18.30
2014,05,24,10,42,18.20
2014,05,24,10,43,18.10
2014,05,24,10,44,18.00
2014,05,24,10,45,18.00
2014,05,24,10,46,18.00
2014,05,24,10,47,18.00
2014,05,24,10,48,18.10
2014,05,24,10,49,18.10
2014,05,24,10,50,18.10
2014,05,24,10,51,18.20
2014,05,24,10,52,18.20
2014,05,24,10,53,18.30
2014,05,24,10,54,18.30
2014,05,24,10,55,18.40
2014,05,24,10,56,18.40
2014,05,24,10,57,18.50
2014,05,24,10,58,18.50
2014,05,24,10,59,18.60
2014,05,24,11,00,18.60
2014,05,24,11,01,18.70
2014,05,24,11,02,18.70
2014,05,24,11,03,18.80
2014,05,24,11,04,18.80
2014,05,24,11,05,18.80
2014,05,24,11,06,18.80
2014,05,24,11,07,18.80
2014,05,24,11,08,18.80
2014,05,24,11,09,18.80
2014,05,24,11,10,18.90
2014,05,24,11,11,18.90
2014,05,24,11,12,19.00
2014,05,24,11,13,19.10
2014,05,24,11,14,19.20
2014,05,24,11,15,19.30
2014,05,24,11,16,19.30
2014,05,24,11,17,19.40
2014,05,24,11,18,19.40
2014,05,24,11,19,19.40
2014,05,24,11,20,19.50
2014,05,24,11,21,19.50
2014,05,24,11,22,19.60
2014,05,24,11,23,19.60
2014,05,24,11,24,19.70
2014,05,24,11,25,19.70
2014,05,24,11,26,19.80
2014,05,24,11,27,19.80
2014,05,24,11,28,19.90
2014,05,24,11,29,19.90
2014,05,24,11,30,19.90
2014,05,24,11,31,19.90
2014,05,24,11,32,19.90
2014,05,24,11,33,19.80
2014,05,24,11,34,19.80
2014,05,24,11,35,19.70
2014,05,24,11,36,19.70
2014,05,24,11,37,19.70
2014,05,24,11,38,19.70
2014,05,24,11,39,19.70
2014,05,24,11,40,19.70
2014,05,24,11,41,19.70
2014,05,24,11,42,19.70
2014,05,24,11,43,19.70
2014,05,24,11,44,19.70
2014,05,24,11,45,19.70
2014,05,24,11,46,19.60
2014,05,24,11,47,19.60
2014,05,24,11,48,19.50
2014,05,24,11,49,19.40
2014,05,24,11,50,19.40
2014,05,24,11,51,19.30
2014,05,24,11,52,19.20
2014,05,24,11,53,19.20
2014,05,24,11,54,19.10
2014,05,24,11,55,19.10
2014,05,24,11,56,19.00
2014,05,24,11,57,18.90
2014,05,24,11,58,18.80
2014,05,24,11,59,18.70
2014,05,24,12,00,18.70
2014,05,24,12,01,18.60
2014,05,24,12,02,18.50
2014,05,24,12,03,18.40
2014,05,24,12,04,18.30
2014,05,24,12,05,18.30
2014,05,24,12,06,18.20
2014,05,24,12,07,18.10
2014,05,24,12,08,18.10
2014,05,24,12,09,18.10
2014,05,24,12,10,18.10
2014,05,24,12,11,18.10
2014,05,24,12,12,18.00
2014,05,24,12,13,18.00
2014,05,24,12,14,18.00
2014,05,24,12,15,18.00
2014,05,24,12,16,18.00
2014,05,24,12,17,18.00
2014,05,24,12,18,18.00
2014,05,24,12,19,17.90
2014,05,24,12,20,17.90
2014,05,24,12,21,17.90
2014,05,24,12,22,17.90
2014,05,24,12,23,17.80
2014,05,24,12,24,17.80
2014,05,24,12,25,17.80
2014,05,24,12,26,17.80
2014,05,24,12,27,17.80
2014,05,24,12,28,17.70
2014,05,24,12,29,17.70
2014,05,24,12,30,17.70
2014,05,24,12,31,17.70
2014,05,24,12,32,17.60
2014,05,24,12,33,17.60
2014,05,24,12,34,17.60
2014,05,24,12,35,17.60
2014,05,24,12,36,17.50
2014,05,24,12,37,17.50
2014,05,24,12,38,17.50
2014,05,24,12,39,17.40
2014,05,24,12,40,17.40
2014,05,24,12,41,17.40
2014,05,24,12,42,17.30
2014,05,24,12,43,17.30
2014,05,24,12,44,17.30
2014,05,24,12,45,17.30
2014,05,24,12,46,17.30
2014,05,24,12,47,17.30
2014,05,24,12,48,17.30
2014,05,24,12,49,17.30
2014,05,24,12,50,17.30
2014,05,24,12,51,17.30
2014,05,24,12,52,17.30
2014,05,24,12,53,17.30
2014,05,24,12,54,17.30
2014,05,24,12,55,17.30
2014,05,24,12,56,17.30
2014,05,24,12,57,17.30
2014,05,24,12,58,17.40
2014,05,24,12,59,17.40
2014,05,24,13,00,17.40
2014,05,24,13,01,17.40
2014,05,24,13,02,17.40
2014,05,24,13,03,17.40
2014,05,24,13,04,17.40
2014,05,24,13,05,17.50
2014,05,24,13,06,17.50
2014,05,24,13,07,17.50
2014,05,24,13,08,17.60
2014,05,24,13,09,17.60
2014,05,24,13,10,17.60
2014,05,24,13,11,17.60
2014,05,24,13,12,17.70
2014,05,24,13,13,17.70
2014,05,24,13,14,17.70
2014,05,24,13,15,17.70
2014,05,24,13,16,17.80
2014,05,24,13,17,17.80
2014,05,24,13,18,17.80
2014,05,24,13,19,17.80
2014,05,24,13,20,17.90
2014,05,24,13,21,17.90
2014,05,24,13,22,17.90
2014,05,24,13,23,18.00
2014,05,24,13,24,18.00
2014,05,24,13,25,18.10
2014,05,24,13,26,18.10
2014,05,24,13,27,18.20
2014,05,24,13,28,18.20
2014,05,24,13,29,18.20
2014,05,24,13,30,18.30
2014,05,24,13,31,18.30
2014,05,24,13,32,18.30
2014,05,24,13,33,18.30
2014,05,24,13,34,18.30
2014,05,24,13,35,18.30
2014,05,24,13,36,18.40
2014,05,24,13,37,18.40
2014,05,24,13,38,18.40
2014,05,24,13,39,18.40
2014,05,24,13,40,18.50
2014,05,24,13,41,18.50
2014,05,24,13,42,18.50
2014,05,24,13,43,18.50
2014,05,24,13,44,18.50
2014,05,24,13,45,18.40
2014,05,24,13,46,18.40
2014,05,24,13,47,18.30
2014,05,24,13,48,18.30
2014,05,24,13,49,18.30
2014,05,24,13,50,18.30
2014,05,24,13,51,18.30
2014,05,24,13,52,18.30
2014,05,24,13,53,18.30
2014,05,24,13,54,18.30
2014,05,24,13,55,18.30
2014,05,24,13,56,18.30
2014,05,24,13,57,18.30
2014,05,24,13,58,18.30
2014,05,24,13,59,18.30
2014,05,24,14,00,18.30
2014,05,24,14,01,18.20
2014,05,24,14,02,18.20
2014,05,24,14,03,18.20
2014,05,24,14,04,18.20
2014,05,24,14,05,18.20
2014,05,24,14,06,18.20
2014,05,24,14,07,18.20
2014,05,24,14,08,18.20
2014,05,24,14,09,18.20
2014,05,24,14,10,18.20
2014,05,24,14,11,18.20
2014,05,24,14,12,18.20
2014,05,24,14,13,18.20
2014,05,24,14,14,18.30
2014,05,24,14,15,18.30
2014,05,24,14,16,18.30
2014,05,24,14,17,18.30
2014,05,24,14,18,18.30
2014,05,24,14,19,18.30
2014,05,24,14,20,18.30
2014,05,24,14,21,18.30
2014,05,24,14,22,18.30
2014,05,24,14,23,18.30
2014,05,24,14,24,18.40
2014,05,24,14,25,18.40
2014,05,24,14,26,18.50
2014,05,24,14,27,18.50
2014,05,24,14,28,18.50
2014,05,24,14,29,18.60
2014,05,24,14,30,18.60
2014,05,24,14,31,18.70
2014,05,24,14,32,18.80
2014,05,24,14,33,18.80
2014,05,24,14,34,18.90
2014,05,24,14,35,19.00
2014,05,24,14,36,19.10
2014,05,24,14,37,19.20
2014,05,24,14,38,19.30
2014,05,24,14,39,19.30
2014,05,24,14,40,19.40
2014,05,24,14,41,19.50
2014,05,24,14,42,19.60
2014,05,24,14,43,19.70
2014,05,24,14,44,19.70
2014,05,24,14,45,19.80
2014,05,24,14,46,19.80
2014,05,24,14,47,19.90
2014,05,24,14,48,19.90
2014,05,24,14,49,20.00
2014,05,24,14,50,20.00
2014,05,24,14,51,20.00
2014,05,24,14,52,20.00
2014,05,24,14,53,20.00
2014,05,24,14,54,20.00
2014,05,24,14,55,20.00
2014,05,24,14,56,20.10
2014,05,24,14,57,20.10
2014,05,24,14,58,20.20
2014,05,24,14,59,20.30
2014,05,24,15,00,20.40
2014,05,24,15,01,20.50
2014,05,24,15,02,20.60
2014,05,24,15,03,20.70
2014,05,24,15,04,20.80
2014,05,24,15,05,20.90
2014,05,24,15,06,21.00
2014,05,24,15,07,21.10
2014,05,24,15,08,21.10
2014,05,24,15,09,21.10
2014,05,24,15,10,21.10
2014,05,24,15,11,21.10
2014,05,24,15,12,21.10
2014,05,24,15,13,21.10
2014,05,24,15,14,21.20
2014,05,24,15,15,21.20
2014,05,24,15,16,21.20
2014,05,24,15,17,21.20
2014,05,24,15,18,21.10
2014,05,24,15,19,21.10
2014,05,24,15,20,21.00
2014,05,24,15,21,20.90
2014,05,24,15,22,20.80
2014,05,24,15,23,20.80
2014,05,24,15,24,20.70
2014,05,24,15,25,20.60
2014,05,24,15,26,20.60
2014,05,24,15,27,20.60
2014,05,24,15,28,20.60
2014,05,24,15,29,20.60
2014,05,24,15,30,20.70
2014,05,24,15,31,20.70
2014,05,24,15,32,20.70
2014,05,24,15,33,20.70
2014,05,24,15,34,20.80
2014,05,24,15,35,20.80
2014,05,24,15,36,20.90
2014,05,24,15,37,20.90
2014,05,24,15,38,21.00
2014,05,24,15,39,21.10
2014,05,24,15,40,21.10
2014,05,24,15,41,21.20
2014,05,24,15,42,21.20
2014,05,24,15,43,21.20
2014,05,24,15,44,21.20
2014,05,24,15,45,21.30
2014,05,24,15,46,21.40
2014,05,24,15,47,21.40
2014,05,24,15,48,21.50
2014,05,24,15,49,21.50
2014,05,24,15,50,21.60
2014,05,24,15,51,21.50
2014,05,24,15,52,21.60
2014,05,24,15,53,21.60
2014,05,24,15,54,21.60
2014,05,24,15,55,21.60
2014,05,24,15,56,21.60
2014,05,24,15,57,21.60
2014,05,24,15,58,21.60
2014,05,24,15,59,21.60
2014,05,24,16,00,21.60
2014,05,24,16,01,21.60
2014,05,24,16,02,21.60
2014,05,24,16,03,21.50
2014,05,24,16,04,21.60
2014,05,24,16,05,21.60
2014,05,24,16,06,21.60
2014,05,24,16,07,21.60
2014,05,24,16,08,21.50
2014,05,24,16,09,21.50
2014,05,24,16,10,21.50
2014,05,24,16,11,21.50
2014,05,24,16,12,21.60
2014,05,24,16,13,21.60
2014,05,24,16,14,21.60
2014,05,24,16,15,21.60
2014,05,24,16,16,21.60
2014,05,24,16,17,21.60
2014,05,24,16,18,21.60
2014,05,24,16,19,21.50
2014,05,24,16,20,21.50
2014,05,24,16,21,21.40
2014,05,24,16,22,21.40
2014,05,24,16,23,21.40
2014,05,24,16,24,21.40
2014,05,24,16,25,21.50
2014,05,24,16,26,21.50
2014,05,24,16,27,21.50
2014,05,24,16,28,21.50
2014,05,24,16,29,21.50
2014,05,24,16,30,21.50
2014,05,24,16,31,21.50
2014,05,24,16,32,21.50
2014,05,24,16,33,21.60
2014,05,24,16,34,21.60
2014,05,24,16,35,21.60
2014,05,24,16,36,21.70
2014,05,24,16,37,21.70
2014,05,24,16,38,21.80
2014,05,24,16,39,21.80
2014,05,24,16,40,21.70
2014,05,24,16,41,21.70
2014,05,24,16,42,21.70
2014,05,24,16,43,21.70
2014,05,24,16,44,21.70
2014,05,24,16,45,21.70
2014,05,24,16,46,21.70
2014,05,24,16,47,21.70
2014,05,24,16,48,21.70
2014,05,24,16,49,21.60
2014,05,24,16,50,21.60
2014,05,24,16,51,21.60
2014,05,24,16,52,21.60
2014,05,24,16,53,21.60
2014,05,24,16,54,21.60
2014,05,24,16,55,21.50
2014,05,24,16,56,21.50
2014,05,24,16,57,21.40
2014,05,24,16,58,21.40
2014,05,24,16,59,21.40
2014,05,24,17,00,21.30
2014,05,24,17,01,21.30
2014,05,24,17,02,21.30
2014,05,24,17,03,21.30
2014,05,24,17,04,21.30
2014,05,24,17,05,21.30
2014,05,24,17,06,21.40
2014,05,24,17,07,21.40
2014,05,24,17,08,21.40
2014,05,24,17,09,21.40
2014,05,24,17,10,21.40
2014,05,24,17,11,21.40
2014,05,24,17,12,21.40
2014,05,24,17,13,21.40
2014,05,24,17,14,21.50
2014,05,24,17,15,21.50
2014,05,24,17,16,21.40
2014,05,24,17,17,21.40
2014,05,24,17,18,21.40
2014,05,24,17,19,21.40